Flushing, NY

3:18 PM EST on January 23, 2017 (GMT -0500)
La Guardia

Weather History for KLGA - February, 2014

Change the Weather History Date:

Tuesday, February 18, 2014

  Actual Average Record
Temperature  
Mean Temperature 33 °F 36 °F  
Max Temperature 40 °F 43 °F 67 °F (2011)
Min Temperature 25 °F 29 °F 0 °F (1979)
Degree Days  
Heating Degree Days 32 29  
Month to date heating degree days 632 549  
Since 1 July heating degree days 3355 3148  
Cooling Degree Days 0 0  
Month to date cooling degree days 0 0  
Year to date cooling degree days 0 0  
Moisture  
Dew Point 21 °F    
Average Humidity 65    
Maximum Humidity 96    
Minimum Humidity 34    
Precipitation  
Precipitation 0.15 in 0.10 in 1.67 in (1960)
Month to date precipitation 4.54 1.72  
Year to date precipitation 6.90 4.89  
Snow  
Snow 1.50 in 0.40 in 2.50 in (2000)
Month to date snowfall 27.6 6.0  
Since 1 July snowfall 52.1 18.9  
Snow Depth 10.00 in    
Sea Level Pressure  
Sea Level Pressure 30.11 in    
Wind  
Wind Speed 10 mph (NE)    
Max Wind Speed 26 mph    
Max Gust Speed 36 mph    
Visibility 6 miles    
Events Fog , Snow    
T = Trace of Precipitation, MM = Missing Value Source: NWS Daily Summary

Daily Weather History Graph

Daily Weather History Graph

Search for Another Location

Airport or City:

Trip Planner

Search our weather history database for the weather conditions in past years. The results will help you decide how hot, cold, wet, or windy it might be!

Date:

Astronomy

Feb. 18, 2014 Rise Set
Actual Time 6:45 AM EST 5:33 PM EST
Civil Twilight 6:17 AM EST 6:01 PM EST
Nautical Twilight 5:45 AM EST 6:33 PM EST
Astronomical Twilight 5:13 AM EST 7:05 PM EST
Moon 9:26 PM EST (2/18) 8:14 AM EST (2/18)
Length of Visible Light 11h 44m
Length of Day
10h 48m
Waning Gibbous, 87% of the Moon is Illuminated
Feb 18
Waning Gibbous
Feb 22
Last Quarter
Mar 1
New
Mar 8
First Quarter
Mar 16
Full

Hourly Weather History & Observations

Time (EST) Temp. Windchill Dew Point Humidity Pressure Visibility Wind Dir Wind Speed Gust Speed Precip Events Conditions
12:51 AM 28.0 °F 20.8 °F 3.0 °F 34% 30.33 in 10.0 mi SE 6.9 mph - N/A   Overcast
1:51 AM 27.0 °F 15.2 °F 10.0 °F 49% 30.23 in 10.0 mi East 15.0 mph - N/A   Overcast
2:51 AM 28.0 °F 20.8 °F 7.0 °F 41% 30.27 in 10.0 mi ESE 6.9 mph - N/A   Mostly Cloudy
3:51 AM 27.0 °F 19.5 °F 12.0 °F 53% 30.23 in 10.0 mi East 6.9 mph - N/A   Overcast
4:51 AM 28.0 °F 20.8 °F 12.9 °F 53% 30.20 in 10.0 mi ENE 6.9 mph - N/A   Overcast
5:12 AM 26.6 °F 18.2 °F 14.0 °F 59% 30.19 in 6.0 mi ENE 8.1 mph - 0.00 in Snow Light Snow
5:20 AM 26.6 °F 19.1 °F 15.8 °F 64% 30.18 in 2.0 mi East 6.9 mph - 0.00 in Snow Light Snow
5:23 AM 26.6 °F 19.1 °F 15.8 °F 64% 30.18 in 1.2 mi ENE 6.9 mph - 0.00 in Snow Light Snow
5:49 AM 26.6 °F 19.1 °F 17.6 °F 69% 30.17 in 0.5 mi ENE 6.9 mph - 0.01 in Snow Light Snow
5:51 AM 26.1 °F 17.6 °F 18.0 °F 71% 30.17 in 0.5 mi ENE 8.1 mph - 0.01 in Snow Light Snow
6:12 AM 24.8 °F 17.9 °F 19.4 °F 80% 30.17 in 1.2 mi NE 5.8 mph - 0.01 in Snow Light Snow
6:25 AM 24.8 °F 17.9 °F 19.4 °F 80% 30.17 in 0.8 mi NE 5.8 mph - 0.03 in Snow Light Snow
6:51 AM 26.1 °F 18.4 °F 21.9 °F 84% 30.17 in 0.8 mi NE 6.9 mph - 0.04 in Snow Light Snow
7:13 AM 26.6 °F 17.5 °F 21.2 °F 80% 30.15 in 0.5 mi NE 9.2 mph - 0.01 in Fog , Snow Snow
7:51 AM 27.0 °F 17.3 °F 24.1 °F 89% 30.14 in 0.5 mi ENE 10.4 mph - 0.05 in Fog , Snow Snow
8:05 AM 26.6 °F 19.1 °F 24.8 °F 93% 30.14 in 1.0 mi East 6.9 mph - 0.01 in Snow Light Snow
8:22 AM 28.4 °F 17.5 °F 24.8 °F 86% 30.12 in 2.0 mi ENE 13.8 mph - 0.02 in Snow Light Snow
8:28 AM 28.4 °F 18.5 °F 24.8 °F 86% 30.11 in 0.8 mi ENE 11.5 mph - 0.02 in Snow Light Snow
8:51 AM 28.0 °F 22.8 °F 25.0 °F 88% 30.10 in 2.5 mi East 4.6 mph - 0.03 in Snow Light Snow
9:16 AM 28.4 °F 21.2 °F 24.8 °F 86% 30.08 in 2.5 mi ENE 6.9 mph - 0.01 in Snow Light Snow
9:32 AM 28.4 °F 19.1 °F 24.8 °F 86% 30.07 in 3.0 mi NE 10.4 mph - 0.02 in   Overcast
9:51 AM 30.0 °F 21.1 °F 26.1 °F 85% 30.06 in 3.0 mi ENE 10.4 mph - 0.02 in   Overcast
10:51 AM 30.9 °F 22.8 °F 28.0 °F 89% 30.02 in 5.0 mi NE 9.2 mph - N/A   Overcast
11:51 AM 32.0 °F 24.8 °F 28.9 °F 88% 30.01 in 5.0 mi NNE 8.1 mph - N/A   Overcast
12:51 PM 33.1 °F 25.5 °F 30.0 °F 89% 29.97 in 4.0 mi ENE 9.2 mph - N/A   Overcast
1:47 PM 33.8 °F - 32.0 °F 93% 29.96 in 6.0 mi Calm Calm - N/A   Overcast
1:51 PM 34.0 °F - 32.0 °F 92% 29.96 in 6.0 mi Calm Calm - N/A   Overcast
2:30 PM 37.4 °F 30.8 °F 30.2 °F 75% 29.95 in 7.0 mi WSW 9.2 mph - N/A   Mostly Cloudy
2:51 PM 37.9 °F 29.6 °F 28.0 °F 68% 29.96 in 9.0 mi West 13.8 mph 23.0 mph N/A   Mostly Cloudy
3:51 PM 39.0 °F 30.6 °F 26.1 °F 60% 29.98 in 10.0 mi West 15.0 mph - N/A   Mostly Cloudy
4:51 PM 39.0 °F 28.0 °F 24.1 °F 55% 30.00 in 10.0 mi West 25.3 mph 32.2 mph N/A   Mostly Cloudy
5:51 PM 37.9 °F 29.6 °F 23.0 °F 55% 30.02 in 10.0 mi West 13.8 mph 26.5 mph N/A   Mostly Cloudy
6:51 PM 37.0 °F 28.5 °F 23.0 °F 57% 30.06 in 10.0 mi West 13.8 mph 21.9 mph N/A   Scattered Clouds
7:51 PM 37.0 °F 28.9 °F 23.0 °F 57% 30.07 in 10.0 mi West 12.7 mph 20.7 mph N/A   Partly Cloudy
8:51 PM 37.0 °F 29.3 °F 19.9 °F 50% 30.10 in 10.0 mi WSW 11.5 mph 23.0 mph N/A   Partly Cloudy
9:51 PM 36.0 °F 28.0 °F 19.0 °F 50% 30.10 in 10.0 mi West 11.5 mph - N/A   Partly Cloudy
10:51 PM 36.0 °F 30.3 °F 19.0 °F 50% 30.09 in 10.0 mi NW 6.9 mph - N/A   Partly Cloudy
11:51 PM 34.0 °F - 19.0 °F 54% 30.09 in 10.0 mi Calm Calm - N/A   Mostly Cloudy